Flag for Canada Weather past 2 weeks in Quesnel, British Columbia, Canada

Now
36 °F

Light rain. Overcast.


Feels Like: 33 °F
Forecast: 35 / 48 °F
Wind: 3 mph from Northwest

Location: Quesnel Airport

Current Time: Mar 31, 2015 at 8:55:28 AM

Latest Report: Mar 31, 2015 at 8:00 AM


Visibility: 9 mi

Pressure: 29.75 "Hg

Humidity: 93%

Dew point: 34 °F

Location of QuesnelLocation

Historic Weather in Quesnel — Graph

°F

Quesnel temperature yesterday

Maximum temperature yesterday: 61 °F (at 1:00 PM)
Minimum temperature yesterday: 36 °F (at 2:00 AM)
Average temperature yesterday: 48 °F

Past Weeks' High & Low Weather Summary

 TemperatureHumidityPressure
High61 °F (Mar 30, 1:00 PM)100% (Mar 19, 6:00 AM)30.47 "Hg (Mar 19, 6:00 AM)
Low19 °F (Mar 16, 7:00 AM)15% (Mar 16, 5:00 PM)29.65 "Hg (Mar 30, 8:00 PM)
Average41 °F77%29.99 "Hg
* Reported Mar 16 7:00 AM — Mar 31 7:00 AM, Quesnel, Weather by CustomWeather, © 2015

Note: Actual official high and low records may vary slightly from our data, if they occured in-between our weather recording intervals... More about our weather records

Advertising

Quesnel weather history for previous 24 hours

 ConditionsComfort  
Time TempWeatherWind HumidityBarometerVisibility
7:00 AM
Tue, Mar 31
36 °FLight rain. Overcast.8 mph93%29.74 "Hg9 mi
6:00 AM36 °FLight rain. Mostly cloudy.14 mph93%29.71 "Hg9 mi
5:02 AM36 °FLight rain. Fog.10 mph93%29.70 "Hg6 mi
4:00 AM37 °FLight rain. Mostly cloudy.8 mph93%29.70 "Hg9 mi
3:02 AM39 °FLight rain. Fog.8 mph93%29.70 "Hg6 mi
2:00 AM41 °FLight rain. Mostly cloudy.6 mph93%29.69 "Hg8 mi
1:54 AM41 °FLight rain. Mostly cloudy.6 mph93%29.69 "Hg8 mi
1:00 AM43 °FLight rain. Overcast.9 mph87%29.69 "Hg9 mi
12:56 AM43 °FLight rain. Overcast.10 mph87%29.69 "Hg9 mi
12:00 AM45 °FLight rain. Overcast.12 mph87%29.69 "Hg9 mi
11:00 PM
Mon, Mar 30
45 °FLight rain. Overcast.13 mph93%29.70 "Hg9 mi
10:46 PM45 °FLight rain. Fog.7 mph93%29.70 "Hg6 mi
10:00 PM46 °FLight rain. Fog.12 mph93%29.70 "Hg6 mi
9:00 PM50 °FOvercast.12 mph82%29.67 "Hg9 mi
8:00 PM54 °FMostly cloudy.6 mph67%29.65 "Hg9 mi
7:00 PM55 °FLight rain. Overcast.7 mph63%29.68 "Hg9 mi
6:46 PM57 °FLight rain. Mostly cloudy.7 mph59%29.68 "Hg9 mi
6:00 PM59 °FLight rain. Mostly cloudy.10 mph51%29.67 "Hg9 mi
5:56 PM59 °FLight rain. Mostly cloudy.9 mph51%29.67 "Hg9 mi
5:00 PM59 °FPartly sunny.14 mph48%29.67 "Hg9 mi
4:00 PM59 °FPartly sunny.16 mph48%29.70 "Hg9 mi
3:00 PM61 °FPartly sunny.18 mph45%29.72 "Hg9 mi
2:00 PM61 °FPartly sunny.13 mph45%29.74 "Hg9 mi
1:00 PM61 °FPartly sunny.15 mph45%29.78 "Hg9 mi
12:00 PM55 °FSunny.9 mph51%29.80 "Hg9 mi
11:00 AM50 °FSunny.9 mph58%29.85 "Hg9 mi
10:00 AM46 °FPartly sunny.7 mph66%29.89 "Hg9 mi
9:00 AM45 °FPartly sunny.12 mph66%29.92 "Hg9 mi
8:00 AM41 °FOvercast.5 mph76%29.95 "Hg9 mi
Weather by CustomWeather, © 2015

See weather overviewHow to use our weather pages